Location: Most
(50.5133°N, 13.6207°E)
Time: 11:10:22
(UTC+01:00)

Oscar 11 - Pass Details

Date: 27 November 2022
Orbit: 611 x 621 km, 97.6° (Epoch: 28 January)

Event Time Altitude Azimuth Distance (km) Brightness Sun altitude
Rises 04:02:46 0° 22° (NNE) 2,893 10.8 -33.5°
Reaches altitude 10° 04:05:15 10° 35° (NE) 1,981 10.1 -33.1°
Maximum altitude 04:08:55 27° 94° (E) 1,186 9.0 -32.6°
Enters shadow 04:09:07 27° 99° (E) 1,189 9.0 -32.5°
